When you browse on this site, cookies collect data to enhance your experience and personalize the content and advertising you see.
Visit our Privacy Policy to learn more. By continuing to use the site, you agree to this use of cookies and data.
  • In Österreich
  • Länderverzeichnis
  • Für 7 Tage
  • Wassertemperatur
  • Wetterkarte
  • News
  • Widgets
  • user-avatar
    Anmelden

    Stündliche Wetter Huautla

    Heute, 15 November, Freitag

    Zeit Temperatur Niederschläge Wind Luftdruck Luftfeuchtigkeit
    00:00 +14°C° 0.1 mm 3 m/S 728 mmHg 95%
    01:00 +14°C° 0.1 mm 2 m/S 728 mmHg 94%
    02:00 +13°C° 0.1 mm 2 m/S 728 mmHg 93%
    03:00 +13°C° 0.1 mm 2 m/S 728 mmHg 93%
    04:00 +13°C° 0.1 mm 2 m/S 728 mmHg 92%
    05:00 +13°C° 0.1 mm 2 m/S 729 mmHg 91%
    06:00 +13°C° 0 mm 2 m/S 729 mmHg 90%
    07:00 +13°C° 0 mm 2 m/S 730 mmHg 88%
    08:00 +13°C° 0 mm 2 m/S 730 mmHg 86%
    09:00 +14°C° 0 mm 2 m/S 730 mmHg 83%
    10:00 +15°C° 0 mm 2 m/S 730 mmHg 79%
    11:00 +16°C° 0 mm 2 m/S 730 mmHg 75%
    12:00 +16°C° 0 mm 2 m/S 729 mmHg 75%
    13:00 +17°C° 0 mm 2 m/S 729 mmHg 75%
    14:00 +17°C° 0 mm 2 m/S 728 mmHg 75%
    15:00 +16°C° 0 mm 2 m/S 728 mmHg 77%
    16:00 +15°C° 0 mm 1 m/S 728 mmHg 80%
    17:00 +15°C° 0 mm 1 m/S 728 mmHg 82%
    18:00 +15°C° 0 mm 1 m/S 729 mmHg 82%
    19:00 +15°C° 0 mm 1 m/S 729 mmHg 81%
    20:00 +14°C° 0 mm 0 m/S 730 mmHg 80%
    21:00 +13°C° 0 mm 0 m/S 729 mmHg 81%
    22:00 +13°C° 0 mm 0 m/S 729 mmHg 81%
    23:00 +13°C° 0 mm 0 m/S 729 mmHg 81%

    Morgen, 16 November, Samstag

    Zeit Temperatur Niederschläge Wind Luftdruck Luftfeuchtigkeit
    00:00 +13°C° 0 mm 0 m/S 728 mmHg 82%
    01:00 +12°C° 0 mm 0 m/S 727 mmHg 82%
    02:00 +12°C° 0 mm 0 m/S 727 mmHg 83%
    03:00 +13°C° 0 mm 1 m/S 727 mmHg 84%
    04:00 +12°C° 0 mm 1 m/S 727 mmHg 85%
    05:00 +12°C° 0 mm 1 m/S 726 mmHg 85%
    06:00 +13°C° 0 mm 1 m/S 727 mmHg 83%
    07:00 +14°C° 0 mm 1 m/S 727 mmHg 81%
    08:00 +16°C° 0 mm 1 m/S 727 mmHg 78%
    09:00 +18°C° 0 mm 1 m/S 727 mmHg 77%
    10:00 +19°C° 0 mm 1 m/S 727 mmHg 75%
    11:00 +20°C° 0 mm 1 m/S 726 mmHg 73%
    12:00 +20°C° 0 mm 1 m/S 725 mmHg 74%
    13:00 +20°C° 0 mm 1 m/S 725 mmHg 74%
    14:00 +21°C° 0 mm 1 m/S 724 mmHg 75%
    15:00 +20°C° 0 mm 1 m/S 724 mmHg 79%
    16:00 +19°C° 0 mm 1 m/S 724 mmHg 83%
    17:00 +18°C° 0 mm 1 m/S 724 mmHg 87%
    18:00 +18°C° 0 mm 1 m/S 725 mmHg 87%
    19:00 +16°C° 0 mm 0 m/S 725 mmHg 88%
    20:00 +16°C° 0 mm 0 m/S 725 mmHg 89%
    21:00 +15°C° 0 mm 0 m/S 725 mmHg 89%
    22:00 +15°C° 0 mm 0 m/S 725 mmHg 90%
    23:00 +15°C° 0 mm 0 m/S 725 mmHg 90%

    übermorgen, 17 November, Sonntag

    Zeit Temperatur Niederschläge Wind Luftdruck Luftfeuchtigkeit
    00:00 +15°C° 0 mm 0 m/S 724 mmHg 90%
    01:00 +15°C° 0 mm 0 m/S 724 mmHg 90%
    02:00 +15°C° 0 mm 0 m/S 723 mmHg 90%
    03:00 +15°C° 0 mm 0 m/S 723 mmHg 91%
    04:00 +14°C° 0 mm 0 m/S 723 mmHg 91%
    05:00 +14°C° 0 mm 0 m/S 723 mmHg 92%
    06:00 +15°C° 0 mm 0 m/S 723 mmHg 89%
    07:00 +17°C° 0 mm 0 m/S 723 mmHg 85%
    08:00 +18°C° 0 mm 0 m/S 724 mmHg 82%
    09:00 +21°C° 0 mm 1 m/S 723 mmHg 80%
    10:00 +23°C° 0 mm 1 m/S 723 mmHg 77%
    11:00 +24°C° 0 mm 1 m/S 723 mmHg 75%
    12:00 +24°C° 0 mm 2 m/S 722 mmHg 77%
    13:00 +24°C° 0 mm 2 m/S 722 mmHg 79%
    14:00 +24°C° 0 mm 2 m/S 721 mmHg 81%
    15:00 +23°C° 0.1 mm 2 m/S 721 mmHg 84%
    16:00 +22°C° 0.1 mm 1 m/S 722 mmHg 88%
    17:00 +21°C° 0.1 mm 1 m/S 722 mmHg 92%
    18:00 +21°C° 0 mm 1 m/S 722 mmHg 92%
    19:00 +19°C° 0 mm 0 m/S 723 mmHg 93%
    20:00 +18°C° 0 mm 0 m/S 723 mmHg 94%
    21:00 +18°C° 0 mm 0 m/S 723 mmHg 93%
    22:00 +18°C° 0 mm 0 m/S 723 mmHg 93%
    23:00 +18°C° 0 mm 0 m/S 723 mmHg 93%

    18 November, Montag

    Zeit Temperatur Niederschläge Wind Luftdruck Luftfeuchtigkeit
    00:00 +18°C° 0 mm 0 m/S 722 mmHg 93%
    01:00 +17°C° 0 mm 0 m/S 722 mmHg 93%
    02:00 +17°C° 0 mm 0 m/S 722 mmHg 93%
    03:00 +17°C° 0 mm 0 m/S 722 mmHg 93%
    04:00 +17°C° 0 mm 0 m/S 722 mmHg 92%
    05:00 +17°C° 0 mm 0 m/S 722 mmHg 92%
    06:00 +18°C° 0 mm 0 m/S 723 mmHg 90%
    07:00 +19°C° 0 mm 0 m/S 723 mmHg 87%
    08:00 +20°C° 0 mm 0 m/S 723 mmHg 85%
    09:00 +21°C° 0 mm 0 m/S 723 mmHg 82%
    10:00 +24°C° 0 mm 1 m/S 723 mmHg 78%
    11:00 +25°C° 0 mm 1 m/S 722 mmHg 74%
    12:00 +25°C° 0 mm 1 m/S 722 mmHg 75%
    13:00 +25°C° 0 mm 1 m/S 721 mmHg 77%
    14:00 +25°C° 0 mm 1 m/S 721 mmHg 78%
    15:00 +24°C° 0.1 mm 1 m/S 721 mmHg 82%
    16:00 +23°C° 0.1 mm 1 m/S 721 mmHg 86%
    17:00 +22°C° 0.1 mm 1 m/S 722 mmHg 90%
    18:00 +22°C° 0 mm 1 m/S 722 mmHg 91%
    19:00 +21°C° 0 mm 1 m/S 722 mmHg 93%
    20:00 +21°C° 0 mm 1 m/S 723 mmHg 94%
    21:00 +21°C° 0 mm 1 m/S 723 mmHg 94%
    22:00 +21°C° 0 mm 1 m/S 723 mmHg 94%
    23:00 +21°C° 0 mm 1 m/S 722 mmHg 94%

    19 November, Dienstag

    Zeit Temperatur Niederschläge Wind Luftdruck Luftfeuchtigkeit
    00:00 +20°C° 0 mm 1 m/S 722 mmHg 94%
    01:00 +18°C° 0 mm 0 m/S 722 mmHg 95%
    02:00 +18°C° 0 mm 0 m/S 722 mmHg 95%
    03:00 +18°C° 0 mm 0 m/S 722 mmHg 94%
    04:00 +18°C° 0 mm 0 m/S 722 mmHg 94%
    05:00 +18°C° 0 mm 0 m/S 723 mmHg 94%
    06:00 +19°C° 0 mm 0 m/S 723 mmHg 92%
    07:00 +20°C° 0 mm 0 m/S 723 mmHg 90%
    08:00 +21°C° 0 mm 0 m/S 724 mmHg 87%
    09:00 +22°C° 0.1 mm 0 m/S 724 mmHg 85%
    10:00 +24°C° 0.1 mm 1 m/S 724 mmHg 82%
    11:00 +25°C° 0.1 mm 1 m/S 723 mmHg 79%
    12:00 +26°C° 0.2 mm 1 m/S 723 mmHg 78%
    13:00 +26°C° 0.2 mm 1 m/S 722 mmHg 77%
    14:00 +26°C° 0.2 mm 2 m/S 722 mmHg 75%
    15:00 +25°C° 0.3 mm 2 m/S 722 mmHg 82%
    16:00 +24°C° 0.3 mm 2 m/S 722 mmHg 88%
    17:00 +23°C° 0.3 mm 2 m/S 722 mmHg 94%
    18:00 +21°C° 0.1 mm 2 m/S 723 mmHg 95%
    19:00 +21°C° 0.1 mm 2 m/S 723 mmHg 96%
    20:00 +21°C° 0.1 mm 1 m/S 723 mmHg 96%
    21:00 +21°C° 0 mm 1 m/S 723 mmHg 96%
    22:00 +21°C° 0 mm 1 m/S 723 mmHg 96%
    23:00 +21°C° 0 mm 1 m/S 723 mmHg 96%

    20 November, Mittwoch

    Zeit Temperatur Niederschläge Wind Luftdruck Luftfeuchtigkeit
    00:00 +19°C° 0 mm 0 m/S 722 mmHg 95%
    01:00 +18°C° 0 mm 0 m/S 722 mmHg 95%
    02:00 +18°C° 0 mm 0 m/S 722 mmHg 95%
    03:00 +18°C° 0 mm 0 m/S 722 mmHg 95%
    04:00 +18°C° 0 mm 0 m/S 722 mmHg 95%
    05:00 +18°C° 0 mm 0 m/S 722 mmHg 95%
    06:00 +19°C° 0 mm 0 m/S 722 mmHg 92%
    07:00 +20°C° 0 mm 0 m/S 723 mmHg 90%
    08:00 +21°C° 0 mm 0 m/S 723 mmHg 88%
    09:00 +24°C° 0 mm 1 m/S 722 mmHg 85%
    10:00 +25°C° 0 mm 1 m/S 722 mmHg 83%
    11:00 +25°C° 0 mm 1 m/S 722 mmHg 81%
    12:00 +25°C° 0 mm 1 m/S 721 mmHg 81%
    13:00 +25°C° 0 mm 1 m/S 720 mmHg 82%
    14:00 +25°C° 0 mm 1 m/S 720 mmHg 83%
    15:00 +24°C° 0 mm 1 m/S 720 mmHg 86%
    16:00 +24°C° 0 mm 1 m/S 720 mmHg 88%
    17:00 +23°C° 0 mm 1 m/S 721 mmHg 90%
    18:00 +23°C° 0 mm 1 m/S 721 mmHg 91%
    19:00 +22°C° 0 mm 1 m/S 722 mmHg 93%
    20:00 +22°C° 0 mm 1 m/S 722 mmHg 94%
    21:00 +21°C° 0 mm 1 m/S 722 mmHg 94%
    22:00 +19°C° 0 mm 0 m/S 722 mmHg 95%
    23:00 +19°C° 0 mm 0 m/S 722 mmHg 95%
    Mehr zeigen